Regional Weather Roundup
Issued by NWS

Home | Current Version | Previous Version | Graphics & Text | Print | Product List | Glossary On
Versions: 1 2 3 4 5 6 7 8 9 10 11 12 13 14 15 16 17 18 19 20 21 22 23 24 25 26 27 28 29 30 31 32 33 34 35 36 37 38 39 40 41 42 43 44 45 46 47 48 49 50
000
ASUS45 KBOU 010710
RWRCO

WEATHER ROUNDUP FOR COLORADO
NATIONAL WEATHER SERVICE PUEBLO CO
100 AM MDT SAT AUG 01 2015

NOTE: "FAIR" INDICATES FEW OR NO CLOUDS BELOW 12000 FEET WITH NO
SIGNIFICANT WEATHER AND/OR OBSTRUCTIONS TO VISIBILITY.

COZ001>005-013-030-031-010800-
...NORTHWEST COLORADO...

CITY           SKY/WX    TMP DP  RH WIND       PRES   REMARKS
CRAIG          CLEAR     52  36  54 E3        30.25S
HAYDEN         CLEAR     61  34  36 E10       30.28S
MEEKER         CLEAR     57  35  43 SE12G18   30.29S
MOUNT WERNER   NOT AVBL
STEAMBOAT SPGS FAIR      53  39  58 CALM      30.31S
WALDEN         FAIR      50  39  66 E6        30.41F
$$

COZ006>008-011-010800-
...WEST CENTRAL VALLEYS...

CITY           SKY/WX    TMP DP  RH WIND       PRES   REMARKS
GRAND JUNCTION PTCLDY    74  47  38 SE14      30.16R
MONTROSE       PTCLDY    69  49  48 S7        30.29R
EAGLE          PTCLDY    63  43  48 E7        30.33R
RIFLE          CLEAR     67  40  37 S5        30.23R
DELTA          NOT AVBL
NUCLA          FAIR      70  46  43 SE3       30.33R
$$

COZ017>023-064>068-010800-
...SOUTHWEST COLORADO...

CITY           SKY/WX    TMP DP  RH WIND       PRES   REMARKS
DURANGO        CLOUDY    62  54  74 N3        30.38S
CORTEZ         CLOUDY    63  61  93 CALM      30.31S
PAGOSA SPRINGS CLOUDY    61  51  69 NW6       30.46S
TELLURIDE      CLOUDY    56  50  81 E6        30.55S
WOLF CREEK PAS NOT AVBL
$$

COZ009-010-012-014-032>034-037-058>063-010800-
...CENTRAL COLORADO...

CITY           SKY/WX    TMP DP  RH WIND       PRES   REMARKS
ASPEN          CLEAR     58  43  57 SW10      30.41S
BUENA VISTA    FAIR      54  47  79 NW3       30.49F
COPPER MTN     PTCLDY    54  39  58 S20       30.74F
BERTHOUD PASS  FAIR      43  32  65 W12       30.78F
COTTONWOOD PAS PTCLDY    55  43  62 W5        30.61F
GUNNISON       PTCLDY    55  46  71 N8        30.48S
KREMMLING      CLEAR     55  39  54 CALM      30.39S
LEADVILLE      PTCLDY    48  44  86 E5        30.60S
MONARCH PASS   PTCLDY    46  37  71 SW14      30.85F
SALIDA         NOT AVBL
NIWOT RIDGE    NOT AVBL
SUNLIGHT       CLEAR     55  34  44 CALM      30.66F
WILKERSON PASS PTCLDY    46  43  87 SW6       30.72F
$$

COZ069>075-010800-
...SAN LUIS VALLEY/SANGRE DE CRISTO MOUNTAINS...

CITY           SKY/WX    TMP DP  RH WIND       PRES   REMARKS
ALAMOSA        CLOUDY    60  52  74 NW5       30.44F
LA VETA PASS   CLOUDY    50  45  81 MISG      30.61F
SAGUACHE       PTCLDY    54  50  87 N5        30.48F
$$

COZ035-036-038>040-010800-
...NORTHERN COLORADO FRONT RANGE...

CITY           SKY/WX    TMP DP  RH WIND       PRES   REMARKS
DENVER INTL AP PTCLDY    67  51  56 S10       30.24S
DMNS CITY PARK NOT AVBL
AURORA         PTCLDY    67  52  57 S12       30.26F
FRONT RANGE AP FAIR      64  52  63 S10       30.26F
ERIE MUNI ARPT FAIR      68  52  55 CALM      30.21F
BOULDER MUN AP FAIR      68  50  52 N5        30.21F
CENTENNIAL     PTCLDY    65  51  60 S8        30.28F
BROOMFIELD     CLEAR     68  52  56 S6        30.25F
LOVELAND       CLEAR     70  52  52 S5        30.21F
LONGMONT       FAIR      66  54  66 CALM      30.22F
$$

COZ041-046-047-076>085-087-088-010800-
...PIKES PEAK/PALMER DIVIDE AND SOUTHERN FOOTHILLS...

CITY           SKY/WX    TMP DP  RH WIND       PRES   REMARKS
COLO. SPRINGS  PTCLDY    64  51  62 E9        30.34F
A. F. ACADEMY  PTCLDY    56  50  79 N7        30.35F
ELLICOTT       FAIR     N/A N/A N/A SE6       30.33F
FALCON         FAIR      59  51  76 CALM      30.39F
FORT CARSON    PTCLDY    60  53  77 N5        30.30F
LIMON          CLEAR     56  53  90 CALM      30.29F
MONUMENT HILL  PTCLDY    59  50  72 S8        30.38F
TRINIDAD       CLOUDY    67  55  65 W5        30.29F
$$

COZ042>045-048>051-090-091-010800-
...NORTHEAST COLORADO...

CITY           SKY/WX    TMP DP  RH WIND       PRES   REMARKS
GREELEY ARPT   CLEAR     68  52  56 S6        30.20S
AKRON          CLEAR     69  55  60 S12       30.22S
BURLINGTON     CLEAR     63  57  81 SW8       30.23S
WRAY           FAIR      70  57  63 SW8       30.17S
STERLING       FAIR      63  55  77 W6        30.17R
HOLYOKE        NOT AVBL
FORT MORGAN    FAIR      66  54  64 S6        30.21S
$$

COZ086-089-092>099-010800-
...SOUTHEAST COLORADO...

CITY           SKY/WX    TMP DP  RH WIND       PRES   REMARKS
PUEBLO         PTCLDY    71  56  58 CALM      30.23F
LA JUNTA       CLEAR     69  61  75 E8        30.19F
LAMAR          PTCLDY    69  62  78 VRB3      30.17F
SPRINGFIELD      N/A     66  63  90 S8        30.24S
$$



USA.gov is the U.S. government's official web portal to all federal, state and local government web resources and services.